Tracking 29892 objects as of 21-Nov-2024
HD Live streaming from Space Station
objects crossing your sky now

SAUDICOMSAT 2

Track SAUDICOMSAT 2 now!
10-day predictions
SAUDICOMSAT 2 is classified as:


NORAD ID: 28370
Int'l Code: 2004-025E
Perigee: 695.8 km
Apogee: 775.0 km
Inclination: 98.6 °
Period: 99.4 minutes
Semi major axis: 7106 km
RCS: 0.0638 m2 (small)
Launch date: June 29, 2004
Source: Saudi Arabia (SAUD)
Launch site: TYURATAM MISSILE AND SPACE COMPLEX (TTMTR)
Your satellite tracking list
Your tracking list is empty




NASA's NSSDC Master Catalog

Two Line Element Set (TLE):
1 28370U 04025E   24325.42062502  .00000710  00000-0  19546-3 0  9994
2 28370  98.6461 311.0230 0055745 195.7666 164.1794 14.49199768 76971
Source of the keplerian elements: AFSPC